Regional Weather Roundup
Issued by NWS Mt. Holly, NJ

Home | Current Version | Previous Version | Text Only | Print | Product List | Glossary On
Versions: 1 2 3 4 5 6 7 8 9 10 11 12 13 14 15 16 17 18 19 20 21 22 23 24 25 26 27 28 29 30 31 32 33 34 35 36 37 38 39 40 41 42 43 44 45 46 47 48 49 50
000
ASUS41 KPHI 051312
RWRPHI

REGIONAL WEATHER ROUNDUP
NATIONAL WEATHER SERVICE MOUNT HOLLY NJ
900 AM EDT SAT SEP 05 2015

NOTE:  "FAIR" INDICATES FEW OR NO CLOUDS BELOW 12,000 FEET WITH NO
SIGNIFICANT WEATHER AND/OR OBSTRUCTIONS TO VISIBILITY.

 * = STATION DOES NOT REPORT PRECIPITATION (E.G. RAIN, SNOW, ETC.)
        OR FOG.

NJZ015>026-051400-
SOUTHERN NEW JERSEY

CITY           SKY/WX    TMP DP  RH WIND       PRES   REMARKS
POMONA         MOSUNNY   74  64  71 NE12      30.22S
WILDWOOD*      MOSUNNY   75  64  69 NE12G22   30.21S
MILLVILLE      MOSUNNY   74  64  71 NE15      30.22S
WRIGHTSTOWN    MOSUNNY   71  64  79 NE10      30.22F
MOUNT HOLLY    SUNNY     72  62  71 NE9       30.25R
TRENTON        SUNNY     71  61  70 E8        30.25F

$$
NJZ001>014-051400-
NORTHERN NEW JERSEY

CITY           SKY/WX    TMP DP  RH WIND       PRES   REMARKS
SUSSEX         SUNNY     69  58  67 NE3       30.29S
ANDOVER*         N/A     69  62  78 N5        30.29S
MORRISTOWN     SUNNY     72  63  73 NE8       30.28S
NEWARK         MOSUNNY   72  60  66 NE9       30.27S
TETERBORO      MOSUNNY   71  55  56 E7        30.27S
CALDWELL       SUNNY     70  56  61 E7        30.28S
SOMERVILLE     MOSUNNY   71  61  70 VRB3      30.26R
ALLAIRE*       PTSUNNY   70  57  64 NE9       30.25F
TOMS RIVER*    MOSUNNY   72  61  68 E9        30.25S

$$
PAZ043-044-047-054-055-060>062-066>071-051400-
EASTERN PENNSYLVANIA

CITY           SKY/WX    TMP DP  RH WIND       PRES   REMARKS
PHILADELPHIA   PTSUNNY   75  61  61 NE10      30.25R
NORTH PHILA    MOSUNNY   74  60  61 E9        30.27S
BLUE BELL      MOSUNNY   72  64  78 NE5       30.26S
DOYLESTOWN     MOSUNNY   68  61  78 VRB5      30.26F
QUAKERTOWN*    MOSUNNY   68  63  83 E7        30.29R
POTTSTOWN      PTSUNNY   70  64  81 NE8       30.28S
LANCASTER      CLOUDY    70  63  78 E7        30.27R
COATESVILLE    CLOUDY    70  64  83 E5        30.27S
READING        PTSUNNY   71  62  73 VRB5      30.26S
ALLENTOWN      PTSUNNY   72  63  73 NE5       30.28R
MOUNT POCONO   MOSUNNY   65  59  81 E5        30.32R
HAZLETON       CLOUDY    66  61  82 E5        30.33S
WILKES BARRE   CLOUDY    70  61  73 VRB3      30.29R

$$
DEZALL-MDZ008-012-015-019-020-051400-
DELAWARE AND EASTERN MARYLAND

CITY           SKY/WX    TMP DP  RH WIND       PRES   REMARKS
WILMINGTON     PTSUNNY   75  63  66 NE12      30.25R
DOVER          MOSUNNY   74  66  76 NE12      30.21R
GEORGETOWN     MOSUNNY   76  66  71 NE17      30.20R
PATUXENT       MOSUNNY   76  68  76 NE14      30.19S
OCEAN CITY     MOSUNNY   78  68  71 NE14      30.17S
WALLOPS ISLAND MOSUNNY   78  69  73 NE20G26   30.17R
CAMBRIDGE      MOSUNNY   77  68  73 NE9       30.19S
SALISBURY      MOSUNNY   76  69  79 NE14G20   30.18S

$$
PAZ001-021-NYZ056-072-MDZ011-DCZ001-051400-
OTHER NEARBY LOCATIONS

CITY           SKY/WX    TMP DP  RH WIND       PRES   REMARKS
HARRISBURG     PTSUNNY   73  63  70 E8        30.26R
STATE COLLEGE  CLOUDY    70  64  83 E7        30.27R
WILLIAMSPORT   CLOUDY    70  63  78 VRB3      30.26R
BINGHAMTON     MOSUNNY   66  62  87 S9        30.30S
NEW YORK CITY  SUNNY     70  57  63 VRB7      30.31R
BALTIMORE      MOSUNNY   75  65  70 E13       30.23R
WASHINGTON DC  CLOUDY    76  68  76 NE9       30.23R

$$


USA.gov is the U.S. government's official web portal to all federal, state and local government web resources and services.